Location: Newark
(35.6799°N, 139.7636°E)
Time: 16:52:34
(UTC+00:00)

Vanguard 3 - Visible Passes

Search period start: 25 January 2021 00:00
Search period end: 04 February 2021 00:00
Orbit: 508 x 3261 km, 33.3° (Epoch: 24 January)

Date Brightness Start Highest point End Pass type
(mag) Time Alt. Az. Time Alt. Az. Time Alt. Az.
25 Jan 9.8 17:37:11 24° E 17:37:11 24° E 17:41:10 10° E visible
25 Jan 8.3 19:41:45 44° WSW 19:44:51 79° S 19:58:11 10° E visible
26 Jan 8.5 18:31:52 57° ESE 18:31:52 57° ESE 18:40:46 10° E visible
26 Jan 8.9 20:36:25 17° W 20:43:18 73° S 20:58:09 10° ESE visible
27 Jan 10.2 17:21:59 17° E 17:21:59 17° E 17:24:01 10° E visible
27 Jan 8.0 19:26:32 57° WSW 19:28:20 77° S 19:40:34 10° E visible
28 Jan 8.9 18:16:39 43° E 18:16:39 43° E 18:23:26 10° E visible
28 Jan 8.7 20:21:12 23° W 20:26:39 67° SSW 20:40:18 10° ESE visible
29 Jan 10.5 17:06:46 11° E 17:06:46 11° E 17:07:00 10° E visible
29 Jan 7.8 19:11:20 71° SW 19:11:55 74° S 19:23:01 10° ESE visible
29 Jan 9.4 21:16:50 10° W 21:25:06 51° SSW 21:39:26 10° SE visible
30 Jan 9.3 18:01:27 31° E 18:01:27 31° E 18:06:12 10° E visible
30 Jan 8.6 20:06:01 29° W 20:10:05 61° SSW 20:22:28 10° ESE visible
31 Jan 8.0 18:56:09 66° SSE 18:56:09 66° SSE 19:05:34 10° ESE visible
31 Jan 9.3 21:00:57 10° W 21:08:26 44° SSW 21:21:14 10° SE visible
01 Feb 9.8 17:46:18 21° E 17:46:18 21° E 17:49:05 10° E visible
01 Feb 8.3 19:50:51 36° WSW 19:53:37 54° SSW 20:04:41 10° ESE visible
02 Feb 8.4 18:41:01 48° SE 18:41:01 48° SE 18:48:11 10° ESE visible
02 Feb 9.3 20:45:35 12° W 20:51:53 36° SSW 21:02:59 10° SE visible
03 Feb 10.2 17:31:12 13° ESE 17:31:12 13° ESE 17:32:05 10° E visible
03 Feb 8.2 19:35:46 40° SW 19:37:14 45° SSW 19:46:56 10° SE visible
